Ludington, MI

8:07 AM EST on November 19, 2019 (GMT -0500)
Mason County

Weather History for KLDM - September, 2019

Change the Weather History Date:

Tuesday, September 3, 2019

  Actual Average Record
Temperature  
Mean Temperature 66 °F -  
Max Temperature 72 °F 75 °F 91 °F (1953)
Min Temperature 59 °F 53 °F 33 °F (1976)
Growing Degree Days 16 (Base 50)    
Moisture  
Dew Point 63 °F    
Average Humidity 88    
Maximum Humidity 96    
Minimum Humidity 70    
Precipitation  
Precipitation 0.89 in - - ()
Sea Level Pressure  
Sea Level Pressure 29.82 in    
Wind  
Wind Speed 9 mph (SSW)    
Max Wind Speed 24 mph    
Max Gust Speed 31 mph    
Visibility 9 miles    
Events Rain    
Averages and records for this station are not official NWS values.
T = Trace of Precipitation, MM = Missing Value Source: NWS Daily Summary

Daily Weather History Graph

Daily Weather History Graph

Search for Another Location

Airport or City:

Astronomy

Sep. 03, 2019 Rise Set
Actual Time 7:10 AM EDT 8:18 PM EDT
Civil Twilight 6:41 AM EDT 8:47 PM EDT
Nautical Twilight 6:05 AM EDT 9:23 PM EDT
Astronomical Twilight 5:28 AM EDT 10:00 PM EDT
Moon 12:12 PM EDT (9/3) 11:04 PM EDT (9/3)
Length of Visible Light 14h 06m
Length of Day
13h 07m
Waxing Crescent, 24% of the Moon is Illuminated
Sep 3
Waxing Crescent
Sep 5
First Quarter
Sep 14
Full
Sep 21
Last Quarter
Sep 28
New

Hourly Weather History & Observations

Time (EDT) Temp. Dew Point Humidity Pressure Visibility Wind Dir Wind Speed Gust Speed Precip Events Conditions
12:15 AM 59.4 °F 56.7 °F 91% 30.04 in 10.0 mi ESE 4.6 mph - N/A   Overcast
12:39 AM 59.9 °F 56.3 °F 88% 30.04 in 10.0 mi East 5.8 mph - N/A   Overcast
12:56 AM 59.2 °F 56.3 °F 90% 30.03 in 10.0 mi East 5.8 mph - N/A   Overcast
1:15 AM 59.2 °F 56.3 °F 90% 30.03 in 10.0 mi East 5.8 mph - N/A   Mostly Cloudy
1:35 AM 59.2 °F 55.6 °F 88% 30.02 in 10.0 mi ESE 6.9 mph - N/A   Scattered Clouds
1:59 AM 59.5 °F 55.6 °F 87% 30.02 in 10.0 mi East 4.6 mph - N/A   Overcast
2:17 AM 59.9 °F 55.6 °F 86% 30.01 in 10.0 mi East 5.8 mph - N/A   Overcast
2:35 AM 59.5 °F 55.6 °F 87% 30.00 in 10.0 mi East 5.8 mph - N/A   Overcast
2:36 AM 59.5 °F 55.6 °F 87% 29.99 in 10.0 mi East 5.8 mph - N/A   Overcast
2:55 AM 60.3 °F 55.6 °F 85% 29.98 in 10.0 mi ESE 6.9 mph - N/A   Overcast
3:15 AM 60.8 °F 55.8 °F 83% 29.97 in 10.0 mi ESE 5.8 mph - N/A   Overcast
3:38 AM 61.0 °F 55.8 °F 83% 29.96 in 10.0 mi ESE 8.1 mph - N/A   Overcast
3:56 AM 61.7 °F 55.6 °F 80% 29.95 in 10.0 mi ESE 8.1 mph - N/A   Overcast
4:15 AM 61.3 °F 56.5 °F 84% 29.94 in 10.0 mi ESE 8.1 mph - N/A   Overcast
4:16 AM 61.3 °F 56.5 °F 84% 29.94 in 10.0 mi SE 8.1 mph - N/A   Overcast
4:35 AM 61.7 °F 56.7 °F 84% 29.94 in 10.0 mi SE 4.6 mph - N/A   Overcast
4:59 AM 60.4 °F 58.1 °F 92% 29.94 in 5.0 mi SE 5.8 mph - 0.18 in Rain Heavy Rain
5:17 AM 61.3 °F 58.3 °F 90% 29.94 in 10.0 mi SSE 6.9 mph - 0.01 in Rain Light Rain
5:35 AM 61.7 °F 59.0 °F 91% 29.93 in 10.0 mi South 6.9 mph - 0.02 in Rain Light Rain
5:36 AM 61.7 °F 59.2 °F 91% 29.93 in 10.0 mi South 8.1 mph - 0.02 in Rain Light Rain
5:55 AM 62.8 °F 59.9 °F 90% 29.91 in 10.0 mi SSE 5.8 mph - 0.02 in Rain Light Rain
5:56 AM 62.8 °F 60.1 °F 91% 29.91 in 10.0 mi SSE 5.8 mph - 0.02 in Rain Light Rain
6:15 AM 63.0 °F 60.8 °F 93% 29.89 in 10.0 mi SSE 9.2 mph - 0.01 in Rain Light Rain
6:20 AM 63.1 °F 61.0 °F 93% 29.87 in 10.0 mi SSE 11.5 mph - 0.01 in Rain Light Rain
6:38 AM 64.4 °F 62.2 °F 93% 29.84 in 10.0 mi SSE 10.4 mph 16.1 mph 0.02 in Rain Light Rain
6:56 AM 63.3 °F 61.9 °F 95% 29.84 in 10.0 mi SSE 9.2 mph - 0.02 in   Clear
7:35 AM 66.2 °F 63.7 °F 92% 29.87 in 10.0 mi Calm Calm - N/A   Clear
7:59 AM 68.7 °F 66.4 °F 92% 29.87 in 10.0 mi SSW 6.9 mph - N/A   Mostly Cloudy
8:17 AM 69.4 °F 66.4 °F 90% 29.86 in 10.0 mi SSW 13.8 mph 18.4 mph N/A Rain Light Rain
8:35 AM 69.3 °F 66.4 °F 91% 29.83 in 10.0 mi South 10.4 mph - N/A Rain Light Rain
8:55 AM 69.1 °F 66.4 °F 91% 29.84 in 10.0 mi SW 11.5 mph 17.3 mph N/A   Scattered Clouds
9:15 AM 69.4 °F 66.2 °F 89% 29.81 in 10.0 mi SSW 16.1 mph 24.2 mph N/A Rain Light Rain
9:38 AM 69.4 °F 66.2 °F 89% 29.81 in 10.0 mi SSW 17.3 mph 20.7 mph N/A   Light Drizzle
9:56 AM 69.8 °F 66.6 °F 89% 29.83 in 10.0 mi SSW 13.8 mph 19.6 mph N/A   Scattered Clouds
10:15 AM 69.4 °F 66.2 °F 89% 29.80 in 10.0 mi South 12.7 mph - N/A Rain Rain
10:35 AM 69.6 °F 65.8 °F 88% 29.84 in 10.0 mi WSW 5.8 mph 16.1 mph N/A   Overcast
10:59 AM 68.4 °F 66.4 °F 93% 29.92 in 3.0 mi North 17.3 mph 20.7 mph 0.13 in Rain Heavy Rain
11:16 AM 67.6 °F 65.8 °F 94% 29.84 in 1.0 mi South 6.9 mph 26.5 mph 0.51 in Rain Heavy Rain
11:35 AM 68.4 °F 66.2 °F 93% 29.82 in 10.0 mi SSW 9.2 mph - 0.54 in Rain Light Rain
11:36 AM 68.4 °F 66.2 °F 93% 29.82 in 10.0 mi South 9.2 mph - 0.54 in Rain Light Rain
11:55 AM 70.0 °F 66.4 °F 88% 29.80 in 10.0 mi SSW 12.7 mph 17.3 mph 0.54 in   Overcast
11:56 AM 70.0 °F 66.4 °F 88% 29.80 in 10.0 mi SSW 12.7 mph 17.3 mph 0.54 in   Overcast
12:15 PM 70.7 °F 64.4 °F 80% 29.79 in 10.0 mi SSW 15.0 mph 20.7 mph N/A   Overcast
12:38 PM 70.7 °F 64.6 °F 81% 29.77 in 10.0 mi SSW 18.4 mph 26.5 mph N/A   Overcast
12:56 PM 71.2 °F 65.8 °F 83% 29.76 in 10.0 mi SSW 17.3 mph 25.3 mph N/A   Overcast
1:15 PM 71.4 °F 65.5 °F 81% 29.74 in 10.0 mi South 20.7 mph 31.1 mph N/A   Overcast
1:16 PM 71.4 °F 65.3 °F 81% 29.74 in 10.0 mi South 17.3 mph 31.1 mph N/A   Overcast
1:35 PM 71.8 °F 65.8 °F 81% 29.72 in 10.0 mi SSW 21.9 mph 29.9 mph N/A   Overcast
1:36 PM 71.8 °F 65.8 °F 81% 29.72 in 10.0 mi South 23.0 mph 29.9 mph N/A   Overcast
1:58 PM 72.7 °F 65.7 °F 79% 29.70 in 10.0 mi SW 24.2 mph 31.1 mph N/A   Mostly Cloudy
2:17 PM 72.3 °F 65.3 °F 78% 29.72 in 10.0 mi SSW 21.9 mph 31.1 mph N/A   Overcast
2:35 PM 71.1 °F 65.3 °F 82% 29.72 in 10.0 mi SSW 17.3 mph 28.8 mph N/A   Overcast
2:55 PM 70.7 °F 65.7 °F 84% 29.73 in 10.0 mi SSW 21.9 mph 28.8 mph N/A   Overcast
2:56 PM 70.7 °F 65.7 °F 84% 29.73 in 10.0 mi SSW 21.9 mph 28.8 mph N/A   Overcast
3:15 PM 70.2 °F 66.2 °F 87% 29.73 in 10.0 mi SSW 16.1 mph 23.0 mph N/A   Overcast
3:20 PM 70.2 °F 66.2 °F 87% 29.73 in 10.0 mi SSW 18.4 mph 24.2 mph N/A   Overcast
3:38 PM 70.9 °F 66.7 °F 87% 29.72 in 10.0 mi SSW 16.1 mph 26.5 mph N/A   Overcast
3:56 PM 70.9 °F 67.1 °F 88% 29.72 in 10.0 mi SSW 15.0 mph 25.3 mph N/A   Overcast
4:15 PM 70.9 °F 67.1 °F 88% 29.71 in 10.0 mi SW 16.1 mph 21.9 mph N/A   Overcast
4:35 PM 70.7 °F 67.3 °F 89% 29.72 in 10.0 mi SW 11.5 mph - N/A   Overcast
4:36 PM 70.7 °F 67.3 °F 89% 29.72 in 10.0 mi SW 12.7 mph - N/A   Overcast
4:59 PM 70.3 °F 67.3 °F 90% 29.71 in 10.0 mi SW 11.5 mph 16.1 mph N/A   Overcast
5:17 PM 72.0 °F 68.0 °F 87% 29.70 in 10.0 mi SW 18.4 mph 23.0 mph N/A   Overcast
5:35 PM 71.4 °F 67.6 °F 88% 29.70 in 10.0 mi SW 13.8 mph 21.9 mph N/A   Mostly Cloudy
5:55 PM 71.4 °F 68.0 °F 89% 29.70 in 10.0 mi SW 16.1 mph 24.2 mph N/A   Overcast
5:56 PM 71.6 °F 68.0 °F 88% 29.70 in 10.0 mi SW 15.0 mph 24.2 mph N/A   Overcast
6:15 PM 71.4 °F 68.0 °F 89% 29.70 in 7.0 mi SW 12.7 mph 18.4 mph N/A   Overcast
6:20 PM 71.1 °F 68.0 °F 90% 29.70 in 7.0 mi SW 13.8 mph 19.6 mph N/A   Overcast
6:38 PM 70.9 °F 68.0 °F 91% 29.70 in 7.0 mi SW 15.0 mph 20.7 mph N/A   Overcast
6:56 PM 71.1 °F 68.2 °F 91% 29.70 in 10.0 mi SW 12.7 mph 20.7 mph N/A   Overcast
7:15 PM 70.9 °F 68.2 °F 91% 29.71 in 10.0 mi SW 13.8 mph - N/A   Overcast
7:35 PM 70.2 °F 67.8 °F 92% 29.72 in 10.0 mi WSW 12.7 mph 17.3 mph N/A   Mostly Cloudy
7:59 PM 69.8 °F 66.6 °F 89% 29.74 in 10.0 mi West 3.5 mph - N/A   Clear
8:17 PM 69.1 °F 65.5 °F 88% 29.74 in 10.0 mi West 3.5 mph - N/A   Clear
8:35 PM 68.4 °F 62.8 °F 82% 29.75 in 10.0 mi WNW 3.5 mph - N/A   Clear
8:36 PM 68.4 °F 62.8 °F 82% 29.75 in 10.0 mi WNW 3.5 mph - N/A   Clear
8:55 PM 67.6 °F 61.7 °F 81% 29.76 in 10.0 mi WNW 3.5 mph - N/A   Scattered Clouds
8:56 PM 67.5 °F 61.7 °F 82% 29.76 in 10.0 mi Calm Calm - N/A   Scattered Clouds
9:15 PM 65.7 °F 60.8 °F 84% 29.76 in 10.0 mi WNW 3.5 mph - N/A   Scattered Clouds
9:38 PM 63.3 °F 61.7 °F 94% 29.77 in 10.0 mi Calm Calm - N/A   Clear
9:56 PM 60.8 °F 59.7 °F 96% 29.77 in 7.0 mi Calm Calm - N/A   Clear
10:15 PM 61.3 °F 60.1 °F 96% 29.77 in 4.0 mi Calm Calm - N/A   Clear
10:16 PM 61.5 °F 60.3 °F 96% 29.77 in 5.0 mi Calm Calm - N/A   Clear
10:35 PM 60.8 °F 59.5 °F 96% 29.78 in 7.0 mi Calm Calm - N/A   Scattered Clouds
10:36 PM 60.6 °F 59.4 °F 96% 29.78 in 7.0 mi Calm Calm - N/A   Scattered Clouds
10:59 PM 64.4 °F 61.9 °F 92% 29.79 in 10.0 mi Calm Calm - N/A   Scattered Clouds
11:17 PM 64.9 °F 60.1 °F 84% 29.79 in 10.0 mi WNW 4.6 mph - N/A   Scattered Clouds
11:35 PM 67.1 °F 59.2 °F 76% 29.80 in 10.0 mi NW 9.2 mph - N/A   Clear
11:55 PM 67.5 °F 57.7 °F 71% 29.80 in 10.0 mi NW 13.8 mph 17.3 mph N/A   Clear
11:56 PM 67.5 °F 57.6 °F 70% 29.81 in 10.0 mi NW 13.8 mph 17.3 mph N/A   Clear